EHI
0 0 0 0 0 0 0 0 0 0 0 0 0 0 0 0 0 0 0 0 0 0 0 0 0 0 0 0 0 0 1 5 14 23 22 17 12 8 4 2 1 0 0 0
0 0 0 0 0 0 0 0 0 0 0 0 0 0 0 0 0 0 0 0 0 0 0 0 0 0 0 0 0 0 1 4 9 13 13 10 6 3 2 1 0 0 0 0
0 0 0 0 0 0 0 0 0 0 0 0 0 0 0 0 0 0 0 0 0 0 0 0 0 0 0 0 0 0 2 4 5 5 5 3 1 0 0 0 0 0 0 0
0 0 0 0 0 0 0 0 0 0 0 0 0 0 0 0 0 0 0 0 0 0 0 0 0 0 0 0 0 1 3 4 4 2 1 0 0 0 0 0 0 0 0 0
0 0 0 0 0 0 0 0 0 0 0 0 0 0 0 0 0 0 0 0 0 0 0 0 0 0 0 0 0 1 2 3 2 1 0 0 0 0 0 0 0 0 0 0
0 0 0 0 0 0 0 0 0 0 0 0 0 0 0 0 0 0 0 0 0 0 0 0 0 0 0 0 0 0 1 1 1 0 0 0 0 0 0 0 0 0 0 0
0 0 0 0 0 0 0 0 0 0 0 0 0 0 0 0 0 0 0 0 0 0 0 0 0 0 0 0 0 0 0 0 0 0 0 0 0 0 0 0 0 0 0 0
0 0 0 0 0 0 0 0 0 0 0 0 0 0 0 0 0 0 0 0 0 0 0 0 0 0 0 0 0 0 0 0 0 0 0 0 0 0 0 0 0 0 0 0
0 0 0 0 0 0 0 0 0 0 0 0 0 0 0 0 0 0 0 0 0 0 0 0 0 0 0 0 0 0 0 0 0 0 0 0 0 0 0 0 0 0 0 0
0 0 0 0 0 0 0 0 0 0 0 0 0 0 0 0 0 0 0 0 0 0 0 0 0 0 0 0 0 0 0 0 0 0 0 0 0 0 0 0 0 0 0 0
0 0 0 0 0 0 0 0 0 0 0 0 0 0 0 0 0 0 0 0 0 0 0 0 0 0 0 0 0 0 0 0 0 0 0 0 0 0 0 0 0 0 0 0
0 0 0 0 0 0 0 0 0 0 0 0 0 0 0 0 0 0 0 0 0 0 0 0 0 0 0 0 0 0 0 0 0 0 0 0 0 0 0 0 0 0 0 0
0 0 0 0 0 0 0 0 0 0 0 0 0 0 0 0 0 0 0 0 0 0 0 0 0 0 0 0 0 0 0 0 0 0 0 0 0 0 0 0 0 0 0 0
0 0 0 0 0 0 0 0 0 0 0 0 0 0 0 0 0 0 0 0 0 0 0 0 0 0 0 0 0 0 0 0 0 0 0 0 0 0 0 0 0 0 0 0
0 0 0 0 0 0 0 0 0 0 0 0 0 0 0 0 0 0 0 0 0 0 0 0 0 0 0 0 0 0 0 0 0 0 0 0 0 0 0 0 0 0 0 0
0 0 0 0 0 0 0 0 0 0 0 0 0 0 0 0 0 0 0 0 0 0 0 0 0 0 0 0 0 0 0 0 0 0 0 0 0 0 0 0 0 0 0 0
0 0 0 0 0 0 0 0 0 0 0 0 0 0 0 0 0 0 0 0 0 0 0 0 0 0 0 0 0 0 0 0 0 0 0 0 0 0 0 0 0 0 0 0
0 0 0 0 0 0 0 0 0 0 0 0 0 0 0 0 0 0 0 0 0 0 0 0 0 0 0 0 0 0 0 0 0 0 0 0 0 0 0 0 0 0 0 0
0 0 0 0 0 0 0 0 0 0 0 0 0 0 0 0 0 0 0 0 0 0 0 0 0 0 0 0 0 0 0 0 0 0 0 0 0 0 0 0 0 0 0 0
0 0 0 0 0 0 0 0 0 0 0 0 0 0 0 0 0 0 0 0 0 0 0 0 0 0 0 0 0 0 0 0 0 0 0 0 0 0 0 0 0 0 0 0
0 0 0 0 0 0 0 0 0 0 0 0 0 0 0 0 0 0 0 0 0 0 0 0 0 0 0 0 0 0 0 0 0 0 0 0 0 0 0 0 0 0 0 0
0 0 0 0 0 0 0 0 0 0 0 0 0 0 0 0 0 0 0 0 0 0 0 0 0 0 0 0 0 0 0 0 0 0 0 0 0 0 0 0 0 0 0 0
0 0 0 0 0 0 0 0 0 0 0 0 0 0 0 0 0 0 0 0 0 0 0 0 0 0 0 0 0 0 0 0 0 0 0 0 0 0 0 0 0 0 0 0
0 0 0 0 0 0 0 0 0 0 0 0 0 0 0 0 0 0 0 0 0 0 0 0 0 0 0 0 0 0 0 0 0 0 0 0 0 0 0 0 0 0 0 0
0 0 0 0 0 0 0 0 0 0 0 0 0 0 0 0 0 0 0 0 0 0 0 0 0 0 0 0 0 0 0 0 0 0 0 0 0 0 0 0 0 0 0 0
0 0 0 0 0 0 0 0 0 0 0 0 0 0 0 0 0 0 0 0 0 0 0 0 0 0 0 0 0 0 0 0 0 0 0 0 0 0 0 0 0 0 0 0
Wind_Speed
7 7 9 11 12 9 6 9 12 11 10 14 20 24 21 20 21 22 21 20 20 20 18 17 15 14 13 12 12 11 11 12 12 10 10 9 8 7 7 6 9 10 11 10
6 10 11 7 7 10 13 14 16 14 11 13 21 29 25 24 26 24 24 23 23 23 22 20 18 15 14 14 12 11 12 13 14 11 10 7 7 6 7 7 8 9 10 10
9 1 5 9 10 11 14 15 15 15 16 15 19 24 19 14 17 19 20 21 23 23 23 22 21 20 17 15 13 11 13 14 15 14 10 10 8 6 6 7 7 8 9 9
9 8 5 7 9 10 10 9 12 13 10 8 6 15 14 9 10 12 15 17 19 20 20 20 21 21 19 16 13 13 14 15 15 16 15 17 11 10 9 8 8 9 9 9
8 6 9 12 12 11 7 4 7 10 11 13 12 13 19 11 14 13 15 18 18 17 17 18 19 19 18 16 13 13 15 16 16 16 17 16 12 10 11 11 13 10 9 9
7 6 6 7 7 10 7 4 9 10 8 13 15 16 19 12 13 12 13 14 14 13 14 15 16 16 15 14 13 14 16 16 17 17 17 16 17 17 17 16 14 10 8 8
8 11 10 6 6 7 9 5 5 6 8 12 7 12 18 12 9 12 13 13 11 10 11 13 14 14 14 15 15 16 17 17 18 17 16 16 18 19 20 18 15 13 9 8
5 6 10 11 11 8 12 10 9 7 8 9 7 16 15 11 10 13 14 14 12 12 11 12 12 13 14 16 17 18 18 18 18 17 16 15 16 13 13 14 13 11 9 9
6 4 3 9 10 9 8 11 10 10 13 13 14 16 16 12 14 16 16 13 11 10 11 12 11 12 14 16 18 19 19 18 18 17 17 17 15 13 14 14 12 9 10 10
6 5 4 4 7 12 10 5 6 8 8 12 15 20 15 13 12 12 12 10 8 10 13 13 10 10 12 13 15 16 17 18 18 18 16 14 15 14 14 13 13 12 12 11
8 6 4 6 12 14 13 10 10 9 9 10 13 14 6 8 9 10 9 8 9 13 15 13 9 7 10 12 14 15 16 17 17 17 17 17 15 15 14 13 13 13 12 11
10 6 8 12 11 11 14 16 15 11 14 13 13 17 8 10 10 9 9 9 12 14 14 11 6 7 11 13 15 15 16 16 16 16 17 16 16 15 14 14 13 13 12 10
10 7 6 6 6 8 11 16 20 17 13 15 18 19 4 7 10 11 12 13 13 14 10 5 4 9 12 13 14 15 15 16 16 16 17 17 16 15 15 14 13 12 11 10
9 7 9 10 8 5 11 15 18 18 15 18 25 28 21 16 16 16 15 15 14 10 6 3 7 10 12 13 14 15 15 15 16 16 17 16 15 15 15 14 13 11 10 9
8 8 12 18 20 21 23 26 22 22 22 22 26 28 27 20 18 17 15 13 10 6 2 6 9 11 12 13 13 14 15 15 15 16 16 15 15 15 14 13 12 11 9 8
8 7 9 16 19 20 23 24 22 19 18 20 25 27 23 16 13 12 12 10 7 3 4 8 10 12 13 13 14 14 15 15 15 16 16 15 15 14 13 12 11 10 9 7
7 5 6 10 13 16 12 9 9 10 10 11 14 16 14 13 11 10 9 7 5 3 6 10 11 12 12 13 14 15 15 15 15 16 16 15 15 14 13 11 10 9 8 6
7 5 4 8 11 7 4 6 10 12 10 10 14 15 11 10 9 8 7 5 2 4 9 11 11 12 12 13 14 15 15 15 16 16 15 14 14 13 12 11 9 8 6 5
12 7 4 5 7 11 8 4 4 6 7 7 9 10 8 6 6 4 7 3 3 7 10 11 12 14 14 14 15 16 16 16 16 15 15 14 13 13 11 10 8 6 5 4
9 10 6 5 6 6 6 7 3 4 5 7 9 8 5 3 2 5 8 7 9 11 12 13 14 15 15 15 15 16 16 16 15 14 14 13 12 11 10 9 7 5 4 2
5 7 8 8 7 9 7 7 4 3 8 10 8 6 2 1 3 4 7 10 11 13 14 14 14 13 14 15 15 16 16 15 14 14 13 12 10 10 9 8 6 4 3 1
7 6 7 6 7 7 2 3 3 6 8 7 6 3 3 6 7 8 9 11 12 13 14 13 13 13 13 13 15 16 15 14 14 14 13 11 10 8 7 7 5 4 2 1
7 7 4 7 7 5 2 5 7 6 7 5 3 0 7 8 7 9 10 11 11 12 12 12 14 15 12 12 14 17 15 14 14 13 12 10 9 8 6 5 4 2 1 2
4 4 5 7 10 9 8 6 3 3 3 3 0 5 7 9 11 11 11 11 11 12 12 13 15 15 13 13 13 15 14 13 13 13 11 9 8 7 5 3 2 1 2 2
4 5 5 7 9 8 2 2 2 3 3 5 6 7 10 13 13 12 12 11 11 11 11 12 13 15 15 14 14 13 13 13 13 11 9 8 6 5 4 3 2 2 1 3
7 9 7 5 3 3 3 2 2 3 5 6 10 12 10 11 14 13 12 11 12 12 12 13 14 15 15 14 13 11 10 11 12 10 8 5 4 3 2 1 1 1 2 5
Wind_Direction
164 195 210 211 219 249 272 267 267 271 283 290 276 275 272 270 266 264 262 262 260 259 256 253 253 252 244 232 224 216 204 190 177 175 175 172 166 153 140 137 141 138 135 132
169 225 230 229 230 244 252 262 270 280 279 282 284 281 276 265 259 257 257 256 255 256 254 249 246 242 237 228 216 207 197 184 179 177 173 164 136 121 113 115 122 129 131 129
205 157 207 212 222 236 246 254 266 277 297 281 286 285 271 255 250 251 251 252 252 250 248 243 237 233 228 224 212 200 191 181 178 169 149 130 116 113 115 125 123 126 127 125
227 223 207 207 223 230 255 253 261 272 278 279 283 292 287 277 257 250 250 246 245 244 242 241 237 230 223 218 206 196 184 179 172 164 164 164 162 155 152 145 133 128 125 125
206 206 215 227 232 222 246 249 255 265 271 274 249 262 279 264 257 253 250 251 252 251 247 243 238 234 224 213 197 188 180 176 171 171 172 172 161 142 134 134 131 126 124 125
234 206 218 227 230 223 227 250 262 256 256 260 248 235 273 269 262 259 255 257 262 263 260 254 246 236 225 206 190 182 177 174 171 171 171 169 153 146 145 145 140 136 132 131
229 222 217 200 192 189 199 216 251 232 224 248 251 235 256 278 264 256 261 268 277 283 278 267 253 234 215 197 188 182 177 172 170 170 169 162 155 154 154 150 149 146 143 142
221 230 203 203 213 206 200 210 230 257 256 273 245 245 260 276 262 256 260 268 279 287 290 281 262 236 212 196 187 181 176 170 168 166 161 152 152 151 149 150 147 144 141 138
217 248 185 206 206 208 194 215 238 271 281 275 257 257 267 254 252 252 256 262 271 286 298 296 274 237 211 195 186 180 172 166 164 159 150 148 149 146 144 141 137 131 130 133
214 249 223 192 202 220 229 213 204 219 257 261 263 265 264 268 256 253 256 262 277 298 305 304 282 235 205 191 181 174 167 160 155 150 144 142 141 140 139 137 136 133 132 133
203 227 234 195 211 209 200 212 217 234 245 264 278 273 284 266 258 265 269 274 295 307 310 306 283 222 185 174 167 162 157 150 147 143 138 137 136 138 136 132 131 130 131 134
201 222 250 238 228 225 221 223 219 235 240 241 264 274 273 257 261 267 274 289 304 310 310 302 266 182 165 162 158 153 149 145 141 137 134 133 133 135 131 129 129 129 129 130
174 203 260 250 204 210 234 237 235 240 253 251 255 267 258 249 264 273 283 294 305 309 308 289 186 160 155 154 151 146 142 137 135 134 132 132 134 133 129 128 127 127 127 128
186 216 232 259 280 268 253 253 243 238 244 252 250 261 268 273 279 282 285 292 298 300 291 215 159 148 146 146 143 138 134 133 133 132 131 131 131 129 126 125 125 125 127 128
201 242 245 260 272 275 271 271 265 250 246 252 263 268 275 279 283 285 286 289 290 288 213 155 146 141 140 138 134 131 130 132 133 130 127 125 123 122 122 122 123 123 122 122
213 258 275 274 273 275 275 276 275 265 254 250 261 268 272 279 281 280 285 285 274 253 162 146 142 140 140 137 133 131 130 131 129 125 123 122 122 122 122 123 124 123 123 124
208 237 276 285 302 295 275 282 288 281 265 256 260 263 279 285 289 291 293 284 261 197 152 147 145 142 139 136 134 132 131 128 124 122 122 123 123 122 123 125 126 127 128 130
215 223 265 292 308 291 308 294 294 297 292 273 264 276 289 290 298 308 312 292 242 153 143 141 137 132 129 128 127 125 126 124 122 121 121 123 124 124 127 128 127 127 127 129
219 222 254 277 291 284 293 308 310 310 311 333 300 288 288 296 298 344 358 357 114 129 130 130 129 127 126 127 128 126 122 121 121 122 124 127 128 129 131 130 128 127 129 130
209 214 232 262 288 288 308 329 320 260 326 10 342 322 315 311 9 27 14 53 93 106 113 118 121 123 124 128 130 125 123 122 122 123 124 126 129 130 128 125 123 123 126 125
169 195 221 242 260 274 289 315 304 326 341 340 335 328 325 78 54 54 55 73 90 102 110 117 120 120 124 129 127 120 118 117 119 120 120 120 119 118 118 118 118 122 121 128
197 195 204 211 234 260 300 319 328 320 313 313 319 326 110 107 97 86 83 87 95 103 110 114 113 113 119 125 122 114 113 118 120 119 116 115 114 111 114 117 117 113 96 355
215 213 218 223 245 290 300 271 295 305 293 308 313 166 131 120 109 102 97 96 98 102 106 109 112 111 111 115 118 116 120 123 120 117 115 114 112 110 115 115 113 105 50 344
224 207 235 261 266 275 285 290 302 320 310 334 90 140 138 126 122 113 106 103 102 103 107 112 112 110 108 109 112 117 123 124 122 119 118 118 117 115 111 102 88 56 5 336
241 191 227 259 278 296 304 3 18 59 70 84 94 109 124 124 120 116 110 106 106 106 108 109 109 110 111 113 112 117 123 124 120 118 118 117 114 116 109 94 58 2 359 328
210 205 217 253 298 292 339 42 84 101 97 107 110 106 108 117 118 114 108 108 109 109 109 109 109 111 113 113 111 113 119 123 121 119 118 114 113 109 97 71 87 195 307 323